Location: South Tamworth Observatory
(43.8246°N, 71.3026°W)
Time: 14:54:48
(UTC-05:00)

Amateur Radio Satellites - All Passes

Search period start: 22 December 2014 14:24
Search period end: 23 December 2014 14:24
Location: South Tamworth Observatory, 43.8246°N, 71.3026°W

Satellite Date Start Highest point End Downlink Frequencies (MHz)
Time Altitude Azimuth
ITAMSAT 1 22 Dec 14:28:43 14:32:20 19° 268° (W) 14:35:58 435.822/435.867
Gurwin Techsat 1B 22 Dec 14:34:30 14:38:59 27° 266° (W) 14:43:29 435.225
BEESAT 2 22 Dec 14:36:26 14:38:34 14° 325° (NW) 14:40:42 435.950
HORYU 2 22 Dec 14:37:54 14:42:15 51° 260° (W) 14:46:39 437.375
SWISSCUBE 22 Dec 14:49:17 14:52:14 17° 299° (WNW) 14:55:11 437.505
ITUPSAT 1 22 Dec 14:50:28 14:53:35 18° 299° (WNW) 14:56:42 437.325
AUBIESAT-1 22 Dec 14:58:02 15:01:59 34° 297° (WNW) 15:05:36 437.475
GONETS M04 22 Dec 15:09:15 15:17:14 37° 69° (ENE) 15:25:05
BEESAT 22 Dec 15:15:30 15:16:33 11° 303° (WNW) 15:17:37 436.000
AIST 1 22 Dec 15:20:48 15:24:43 33° 91° (E) 15:28:38
M-CUBED/EXP-1 PRIME 22 Dec 15:25:55 15:28:55 18° 303° (WNW) 15:31:46 437.505
ISS 22 Dec 15:27:37 15:30:13 21° 355° (N) 15:32:48 145.825
JAS-2 22 Dec 15:31:20 15:38:45 62° 71° (ENE) 15:45:27 435.910
MOZHAYETS 4 22 Dec 15:31:50 15:34:07 14° 89° (E) 15:36:24
STARS 22 Dec 15:35:13 15:39:08 31° 292° (WNW) 15:43:03 437.465
AO-7 22 Dec 15:42:29 15:50:32 52° 258° (WSW) 15:58:40 29.400- 29.500
KKS-1 22 Dec 15:44:00 15:47:10 19° 296° (WNW) 15:50:19 437.445
Cubesat XI-IV 22 Dec 15:59:47 16:03:49 23° 62° (ENE) 16:07:52 437.490
RS-15 22 Dec 16:13:58 16:22:36 25° 5° (N) 16:31:27 29.354- 29.394
CUTE-I 22 Dec 16:31:19 16:36:15 40° 68° (ENE) 16:41:10 437.470
AIST 1 22 Dec 16:58:59 17:02:26 23° 288° (WNW) 17:05:54
ISS 22 Dec 17:04:40 17:07:32 26° 15° (NNE) 17:10:22 145.825
PRISM 22 Dec 17:05:52 17:08:37 17° 93° (E) 17:11:20 437.425
GONETS M04 22 Dec 17:05:56 17:14:19 53° 271° (W) 17:22:37
MOZHAYETS 4 22 Dec 17:07:12 17:11:48 65° 286° (WNW) 17:16:21
MaSat-1 22 Dec 17:08:05 17:10:26 64° 62° (ENE) 17:12:55 437.345
JAS-2 22 Dec 17:17:47 17:24:02 28° 267° (W) 17:29:53 435.910
DANDE 22 Dec 17:38:13 17:40:40 12° 55° (NE) 17:43:12 436.750
Cubesat XI-IV 22 Dec 17:38:20 17:43:32 54° 260° (W) 17:48:46 437.490
STRAND 1 22 Dec 18:00:54 18:05:22 30° 96° (E) 18:09:49 437.568
CUTE-I 22 Dec 18:11:53 18:16:24 28° 265° (W) 18:20:57 437.470
CUSAT 1 22 Dec 18:16:29 18:22:37 24° 64° (ENE) 18:29:10 437.405
RS-15 22 Dec 18:28:18 18:38:52 44° 38° (NE) 18:49:48 29.354- 29.394
CUBESAT XI-V 22 Dec 18:36:18 18:40:55 82° 103° (ESE) 18:45:31 437.345
PRISM 22 Dec 18:40:25 18:44:21 42° 289° (WNW) 18:48:15 437.425
ISS 22 Dec 18:41:05 18:44:23 77° 214° (SW) 18:47:38 145.825
HO-68 22 Dec 18:47:30 18:54:04 41° 63° (ENE) 19:00:38 435.675
CANX-2 22 Dec 18:56:14 18:59:43 25° 67° (ENE) 19:03:13 2200.000
BRITE-PL 22 Dec 19:03:15 19:06:47 28° 68° (ENE) 19:10:21 437.365/2234.400
COMPASS 1 22 Dec 19:11:41 19:15:05 24° 67° (ENE) 19:18:31 437.405
DELFI C3 22 Dec 19:17:32 19:18:14 10° 60° (ENE) 19:18:56 145.870
DANDE 22 Dec 19:18:12 19:25:45 51° 74° (ENE) 19:34:08 436.750
GOMX 1 22 Dec 19:18:24 19:21:58 29° 68° (ENE) 19:25:37 467.674
SEEDS 22 Dec 19:19:50 19:23:40 34° 70° (ENE) 19:27:33 437.485
CUTE 1.7 + AOD 2 22 Dec 19:26:01 19:30:05 45° 72° (ENE) 19:34:13 437.475
DOVE 4 22 Dec 19:33:13 19:36:52 31° 68° (ENE) 19:40:36 437.250
PCSat 22 Dec 19:36:08 19:37:21 11° 29° (NNE) 19:38:33 145.827
BEESAT 2 22 Dec 19:37:16 19:39:50 16° 37° (NE) 19:42:23 435.950
STRAND 1 22 Dec 19:39:58 19:44:34 35° 293° (WNW) 19:49:10 437.568
FUNcube-1 22 Dec 19:40:15 19:41:02 10° 59° (ENE) 19:41:49 145.935
CINEMA 3 22 Dec 19:42:13 19:45:34 24° 66° (ENE) 19:49:00 145.822/145.860
UWE-3 22 Dec 19:45:11 19:47:27 14° 62° (ENE) 19:49:45 435.000/436.395/437.385
DX 1 22 Dec 19:52:25 19:55:56 25° 66° (ENE) 19:59:27 434.975-435.025
CUSAT 1 22 Dec 19:58:33 20:06:26 85° 262° (W) 20:15:00 437.405
AISAT 22 Dec 20:07:01 20:09:02 13° 60° (ENE) 20:11:04 437.250
SO-50 22 Dec 20:07:15 20:11:42 59° 120° (ESE) 20:16:19 436.795
AAUSAT CUBESAT 2 22 Dec 20:09:14 20:13:27 87° 77° (ENE) 20:17:43 437.432
Oscar 11 22 Dec 20:10:09 20:14:17 45° 71° (ENE) 20:18:27 145.826/435.025
CUBESAT XI-V 22 Dec 20:15:52 20:17:42 12° 300° (WNW) 20:19:32 437.345
ISS 22 Dec 20:20:07 20:20:25 10° 230° (SW) 20:20:43 145.825
UKube-1 22 Dec 20:20:13 20:24:20 45° 71° (ENE) 20:28:29 .
CANX-2 22 Dec 20:31:41 20:35:31 32° 264° (W) 20:39:23 2200.000
BEESAT 3 22 Dec 20:32:29 20:36:29 43° 50° (NE) 20:40:26 437.485
HO-68 22 Dec 20:34:57 20:41:42 43° 261° (W) 20:48:30 435.675
RS-15 22 Dec 20:40:51 20:51:59 69° 243° (WSW) 21:03:38 29.354- 29.394
BRITE-PL 22 Dec 20:41:56 20:45:21 24° 266° (W) 20:48:46 437.365/2234.400
CUBEBUG 2 22 Dec 20:46:00 20:50:10 70° 75° (ENE) 20:54:29 437.445
ZACube-1 22 Dec 20:46:36 20:50:40 51° 72° (ENE) 20:54:51 437.345
COMPASS 1 22 Dec 20:46:52 20:50:39 32° 264° (W) 20:54:30 437.405
DELFI C3 22 Dec 20:48:44 20:52:51 81° 257° (WSW) 20:57:00 145.870
50 SAT 22 Dec 20:49:43 20:53:03 26° 68° (ENE) 20:56:25 437.505
AIST 2 22 Dec 20:52:38 20:56:32 32° 46° (NE) 21:00:22 435.215
SEEDS 22 Dec 20:56:13 20:59:34 22° 266° (W) 21:02:57 437.485
VELOX 1 22 Dec 20:56:29 21:00:34 38° 70° (ENE) 21:04:40 145.980
GOMX 1 22 Dec 20:56:47 21:00:09 24° 266° (W) 21:03:34 467.674
DANDE 22 Dec 21:01:54 21:09:07 41° 270° (W) 21:17:02 436.750
CUTE 1.7 + AOD 2 22 Dec 21:03:28 21:06:15 17° 269° (W) 21:09:04 437.475
ESTCUBE 1 22 Dec 21:08:11 21:11:41 22° 65° (ENE) 21:15:11 437.505/2401.250
DOVE 4 22 Dec 21:11:25 21:14:43 23° 266° (W) 21:18:06 437.250
FUNcube-1 22 Dec 21:12:29 21:16:41 84° 257° (WSW) 21:21:00 145.935
BEESAT 2 22 Dec 21:14:26 21:18:39 84° 237° (WSW) 21:22:48 435.950
PCSat 22 Dec 21:17:08 21:22:18 42° 51° (NE) 21:27:25 145.827
CINEMA 3 22 Dec 21:18:55 21:22:39 32° 264° (W) 21:26:30 145.822/145.860
UWE-3 22 Dec 21:19:21 21:23:29 59° 260° (W) 21:27:45 435.000/436.395/437.385
UNISAT 6 22 Dec 21:23:55 21:27:02 17° 91° (E) 21:30:09 437.425
DX 1 22 Dec 21:28:07 21:32:02 33° 263° (W) 21:35:58 434.975-435.025
HUMSAT D 22 Dec 21:29:17 21:33:26 88° 76° (ENE) 21:37:40 437.325/437.525
QB50P1 22 Dec 21:35:53 21:37:50 13° 90° (E) 21:39:47 145.935-145.965
CUBEBUG 1 22 Dec 21:38:22 21:42:26 40° 70° (ENE) 21:46:30 437.445
AISAT 22 Dec 21:40:41 21:45:05 72° 257° (WSW) 21:49:31 437.250
CUSAT 1 22 Dec 21:43:19 21:48:40 20° 278° (W) 21:54:16 437.405
Oscar 11 22 Dec 21:47:48 21:50:41 17° 268° (W) 21:53:36 145.826/435.025
SO-50 22 Dec 21:48:58 21:52:38 23° 320° (NW) 21:56:24 436.795
ANTELSAT 22 Dec 21:55:10 21:59:31 35° 97° (E) 22:03:50 437.575/2403.000
UKube-1 22 Dec 21:57:50 22:00:44 17° 267° (W) 22:03:38 .
POPSAT HIP 1 22 Dec 22:03:34 22:07:09 25° 95° (E) 22:10:43 437.405
BEESAT 3 22 Dec 22:11:16 22:14:23 21° 248° (WSW) 22:17:28 437.485
YUBILEINY 22 Dec 22:17:22 22:24:51 33° 84° (E) 22:32:18 435.215
BUGSAT 1 22 Dec 22:17:46 22:21:17 28° 96° (E) 22:24:48 437.445
50 SAT 22 Dec 22:24:45 22:28:10 27° 265° (W) 22:31:39 437.505
ZACube-1 22 Dec 22:25:00 22:27:23 15° 270° (W) 22:29:50 437.345
TISAT 1 22 Dec 22:25:56 22:29:40 32° 69° (ENE) 22:33:26 437.305
CUBEBUG 2 22 Dec 22:26:25 22:27:26 11° 272° (W) 22:28:26 437.445
TIGRISAT 22 Dec 22:28:55 22:33:39 75° 102° (ESE) 22:38:22 435.000
DUCHIFAT 1 22 Dec 22:29:56 22:34:04 48° 100° (E) 22:38:12 145.980
AIST 2 22 Dec 22:31:19 22:35:07 31° 245° (WSW) 22:38:50 435.215
VELOX 1 22 Dec 22:33:54 22:37:16 21° 266° (W) 22:40:39 145.980
SPROUT 22 Dec 22:36:52 22:40:50 39° 70° (ENE) 22:44:50 437.525
ESTCUBE 1 22 Dec 22:44:03 22:48:19 40° 262° (W) 22:52:36 437.505/2401.250
SWISSCUBE 22 Dec 22:44:21 22:45:46 11° 57° (ENE) 22:47:11 437.505
QB50P2 22 Dec 22:45:12 22:49:29 74° 102° (ESE) 22:53:46 145.880/145.840
ITUPSAT 1 22 Dec 22:46:17 22:47:17 11° 57° (ENE) 22:48:18 437.325
POLYITAN 1 22 Dec 22:54:54 22:59:13 87° 284° (WNW) 23:03:32 437.675
NANOSAT C BR1 22 Dec 22:54:58 22:59:15 87° 284° (WNW) 23:03:31 145.865
O/OREOS (USA 219) 22 Dec 22:55:01 22:58:00 18° 100° (E) 23:00:58 437.305
RS-15 22 Dec 22:56:23 23:02:13 16° 264° (W) 23:08:11 29.354- 29.394
UNISAT 6 22 Dec 22:59:31 23:04:08 54° 288° (WNW) 23:08:43 437.425
PCSat 22 Dec 23:00:49 23:05:34 31° 250° (WSW) 23:10:16 145.827
BEESAT 22 Dec 23:06:56 23:10:01 17° 61° (ENE) 23:13:05 436.000
M-CUBED/EXP-1 PRIME 22 Dec 23:08:05 23:10:20 13° 53° (NE) 23:12:34 437.505
QB50P1 22 Dec 23:09:54 23:14:06 60° 287° (WNW) 23:18:18 145.935-145.965
CUBEBUG 1 22 Dec 23:15:45 23:18:57 20° 267° (W) 23:22:10 437.445
ANTELSAT 22 Dec 23:32:12 23:36:10 27° 293° (WNW) 23:40:07 437.575/2403.000
POPSAT HIP 1 22 Dec 23:39:18 23:43:02 30° 292° (WNW) 23:46:46 437.405
BUGSAT 1 22 Dec 23:53:21 23:56:42 25° 293° (WNW) 00:00:03 437.445
TISAT 1 23 Dec 00:02:12 00:05:33 23° 266° (W) 00:08:54 437.305
DUCHIFAT 1 23 Dec 00:06:49 00:09:34 17° 296° (WNW) 00:12:19 145.980
TIGRISAT 23 Dec 00:07:21 00:09:47 14° 300° (WNW) 00:12:13 435.000
AUBIESAT-1 23 Dec 00:12:32 00:17:07 43° 65° (ENE) 00:21:42 437.475
YUBILEINY 23 Dec 00:12:39 00:21:12 57° 284° (WNW) 00:29:46 435.215
SPROUT 23 Dec 00:13:59 00:17:05 19° 267° (W) 00:20:12 437.525
SWISSCUBE 23 Dec 00:18:03 00:22:51 84° 75° (ENE) 00:27:40 437.505
ITUPSAT 1 23 Dec 00:19:33 00:24:21 79° 75° (ENE) 00:29:11 437.325
QB50P2 23 Dec 00:23:11 00:24:49 12° 299° (WNW) 00:26:27 145.880/145.840
O/OREOS (USA 219) 23 Dec 00:32:42 00:37:00 47° 298° (WNW) 00:41:20 437.305
Oscar 19 23 Dec 00:37:54 00:42:28 30° 95° (E) 00:46:59 437.125/150
M-CUBED/EXP-1 PRIME 23 Dec 00:39:41 00:44:34 83° 70° (ENE) 00:49:29 437.505
BEESAT 23 Dec 00:42:38 00:47:22 61° 259° (WSW) 00:52:08 436.000
STARS 23 Dec 00:57:36 01:01:20 28° 67° (ENE) 01:05:06 437.465
ITAMSAT 1 23 Dec 00:59:58 01:03:26 18° 91° (E) 01:06:53 435.822/435.867
KKS-1 23 Dec 01:06:07 01:10:23 50° 72° (ENE) 01:14:42 437.445
Gurwin Techsat 1B 23 Dec 01:10:12 01:12:59 14° 89° (E) 01:15:45 435.225
AUBIESAT-1 23 Dec 01:48:09 01:52:08 25° 261° (W) 01:56:10 437.475
VERMONT LUNAR 23 Dec 01:52:45 01:55:39 24° 158° (SSE) 01:58:34 437.305
SWISSCUBE 23 Dec 02:00:02 02:01:19 11° 272° (W) 02:02:36 437.505
ITUPSAT 1 23 Dec 02:01:04 02:02:49 12° 271° (W) 02:04:34 437.325
Oscar 19 23 Dec 02:17:06 02:21:50 36° 293° (WNW) 02:26:32 437.125/150
YUBILEINY 23 Dec 02:17:24 02:20:19 12° 308° (NW) 02:23:14 435.215
M-CUBED/EXP-1 PRIME 23 Dec 02:17:55 02:20:05 13° 267° (W) 02:22:14 437.505
PHONESAT 2.4 23 Dec 02:18:55 02:21:56 25° 158° (SSE) 02:24:57 2401.200-2431.200
HORYU 2 23 Dec 02:28:24 02:32:18 28° 96° (E) 02:36:09 437.375
STARS 23 Dec 02:33:57 02:37:45 29° 264° (W) 02:41:35 437.465
MOZHAYETS 4 23 Dec 02:35:18 02:38:12 17° 62° (ENE) 02:41:06
ITAMSAT 1 23 Dec 02:38:14 02:43:20 60° 288° (WNW) 02:48:24 435.822/435.867
KKS-1 23 Dec 02:44:32 02:47:20 16° 268° (W) 02:50:08 437.445
Gurwin Techsat 1B 23 Dec 02:48:13 02:53:32 77° 286° (WNW) 02:58:50 435.225
SO-50 23 Dec 02:57:53 03:00:58 16° 34° (NE) 03:04:04 436.795
AIST 1 23 Dec 03:03:46 03:08:03 79° 264° (W) 03:12:18
VERMONT LUNAR 23 Dec 03:30:10 03:33:34 47° 175° (S) 03:36:59 437.305
AO-7 23 Dec 03:42:08 03:50:17 52° 102° (ESE) 03:58:20 29.400- 29.500
PHONESAT 2.4 23 Dec 03:56:44 04:00:14 48° 175° (S) 04:03:45 2401.200-2431.200
PRISM 23 Dec 03:58:20 04:01:06 17° 63° (ENE) 04:03:51 437.425
HORYU 2 23 Dec 04:04:58 04:08:56 31° 293° (WNW) 04:12:54 437.375
CUBESAT XI-V 23 Dec 04:07:21 04:08:52 12° 59° (ENE) 04:10:23 437.345
MOZHAYETS 4 23 Dec 04:10:21 04:14:56 60° 259° (W) 04:19:34
GONETS M04 23 Dec 04:12:05 04:20:04 40° 86° (E) 04:28:02
JAS-2 23 Dec 04:25:26 04:30:40 41° 97° (E) 04:35:33 435.910
Gurwin Techsat 1B 23 Dec 04:30:46 04:32:36 12° 304° (NW) 04:34:27 435.225
SO-50 23 Dec 04:37:24 04:42:19 77° 54° (NE) 04:47:14 436.795
CUTE-I 23 Dec 04:48:35 04:51:12 14° 89° (E) 04:53:49 437.470
VERMONT LUNAR 23 Dec 05:08:18 05:11:37 39° 192° (SSW) 05:14:55 437.305
STRAND 1 23 Dec 05:18:00 05:22:54 50° 70° (ENE) 05:27:50 437.568
PRISM 23 Dec 05:32:10 05:36:16 48° 260° (W) 05:40:22 437.425
PHONESAT 2.4 23 Dec 05:35:14 05:38:39 40° 192° (SSW) 05:42:04 2401.200-2431.200
AO-7 23 Dec 05:35:15 05:42:51 40° 301° (WNW) 05:50:25 29.400- 29.500
CUBESAT XI-V 23 Dec 05:40:55 05:45:36 89° 256° (WSW) 05:50:16 437.345
Cubesat XI-IV 23 Dec 05:54:07 05:59:21 55° 101° (E) 06:04:33 437.490
GONETS M04 23 Dec 06:08:14 06:16:42 49° 286° (WNW) 06:25:12
JAS-2 23 Dec 06:10:56 06:15:35 27° 297° (WNW) 06:19:57 435.910
SO-50 23 Dec 06:19:34 06:22:16 15° 252° (WSW) 06:24:57 436.795
CUTE-I 23 Dec 06:26:33 06:31:54 80° 286° (WNW) 06:37:12 437.470
VERMONT LUNAR 23 Dec 06:47:15 06:49:23 15° 208° (SSW) 06:51:31 437.305
STRAND 1 23 Dec 06:58:33 07:02:22 21° 267° (W) 07:06:12 437.568
PHONESAT 2.4 23 Dec 07:14:33 07:16:48 16° 208° (SSW) 07:19:03 2401.200-2431.200
AO-7 23 Dec 07:32:17 07:33:19 10° 324° (NW) 07:34:22 29.400- 29.500
Cubesat XI-IV 23 Dec 07:35:03 07:39:03 22° 298° (WNW) 07:43:02 437.490
AAUSAT CUBESAT 2 23 Dec 07:53:18 07:55:19 13° 90° (E) 07:57:20 437.432
MaSat-1 23 Dec 07:58:14 08:00:28 74° 297° (WNW) 08:02:40 437.345
HO-68 23 Dec 08:00:51 08:07:19 35° 96° (E) 08:13:43 435.675
CUTE-I 23 Dec 08:09:01 08:11:06 12° 304° (NW) 08:13:10 437.470
CANX-2 23 Dec 08:15:33 08:19:38 39° 98° (E) 08:23:39 2200.000
UNISAT 6 23 Dec 08:24:57 08:27:57 18° 63° (ENE) 08:30:59 437.425
YUBILEINY 23 Dec 08:25:42 08:31:10 18° 58° (ENE) 08:36:35 435.215
COMPASS 1 23 Dec 08:29:13 08:33:10 36° 97° (E) 08:37:05 437.405
DELFI C3 23 Dec 08:29:47 08:31:47 13° 90° (E) 08:33:46 145.870
QB50P1 23 Dec 08:31:02 08:32:54 13° 61° (ENE) 08:34:46 145.935-145.965
DANDE 23 Dec 08:35:35 08:39:04 36° 89° (E) 08:43:41 436.750
CUBEBUG 2 23 Dec 08:37:05 08:39:46 15° 90° (E) 08:42:27 437.445
SEEDS 23 Dec 08:38:34 08:42:48 55° 100° (E) 08:46:59 437.485
BRITE-PL 23 Dec 08:43:04 08:47:51 81° 103° (ESE) 08:53:02 437.365/2234.400
CUTE 1.7 + AOD 2 23 Dec 08:45:48 08:50:09 78° 102° (ESE) 08:54:26 437.475
GOMX 1 23 Dec 08:55:08 08:59:58 78° 102° (ESE) 09:05:08 467.674
ANTELSAT 23 Dec 08:55:54 08:59:55 35° 69° (ENE) 09:04:03 437.575/2403.000
POPSAT HIP 1 23 Dec 08:58:22 09:01:44 24° 66° (ENE) 09:05:07 437.405
RS-15 23 Dec 09:00:11 09:05:51 16° 97° (E) 09:11:29 29.354- 29.394
FUNcube-1 23 Dec 09:00:39 09:03:48 18° 92° (E) 09:06:57 145.935
O/OREOS (USA 219) 23 Dec 09:01:55 09:06:15 44° 61° (ENE) 09:10:36 437.305
DOVE 4 23 Dec 09:07:12 09:12:03 77° 103° (ESE) 09:17:09 437.250
UWE-3 23 Dec 09:08:15 09:12:08 26° 94° (E) 09:16:02 435.000/436.395/437.385
BUGSAT 1 23 Dec 09:09:49 09:13:08 24° 67° (ENE) 09:16:26 437.445
CINEMA 3 23 Dec 09:11:24 09:16:06 52° 100° (E) 09:20:56 145.822/145.860
CUSAT 1 23 Dec 09:12:05 09:16:01 74° 282° (WNW) 09:21:27 437.405
HUMSAT D 23 Dec 09:14:05 09:16:23 14° 90° (E) 09:18:41 437.325/437.525
DX 1 23 Dec 09:14:54 09:18:56 36° 98° (E) 09:22:56 434.975-435.025
DUCHIFAT 1 23 Dec 09:24:07 09:28:05 43° 71° (ENE) 09:32:05 145.980
AAUSAT CUBESAT 2 23 Dec 09:27:11 09:31:22 58° 286° (WNW) 09:35:30 437.432
TIGRISAT 23 Dec 09:29:08 09:33:30 76° 75° (ENE) 09:38:01 435.000
AISAT 23 Dec 09:31:20 09:34:36 20° 93° (E) 09:37:51 437.250
Oscar 11 23 Dec 09:32:07 09:36:30 79° 103° (ESE) 09:40:51 145.826/435.025
QB50P2 23 Dec 09:39:37 09:43:48 66° 74° (ENE) 09:48:00 145.880/145.840
UKube-1 23 Dec 09:42:34 09:46:54 70° 103° (ESE) 09:51:13 .
HO-68 23 Dec 09:48:22 09:55:10 48° 295° (WNW) 10:01:55 435.675
NANOSAT C BR1 23 Dec 09:49:04 09:53:16 83° 75° (ENE) 09:57:30 145.865
POLYITAN 1 23 Dec 09:49:29 09:53:42 85° 76° (ENE) 09:57:57 437.675
CANX-2 23 Dec 09:52:05 09:55:19 21° 295° (WNW) 09:58:31 2200.000
UNISAT 6 23 Dec 10:00:04 10:04:20 50° 261° (W) 10:08:44 437.425
50 SAT 23 Dec 10:03:04 10:06:55 36° 97° (E) 10:10:45 437.505
DELFI C3 23 Dec 10:03:21 10:07:23 54° 287° (WNW) 10:11:23 145.870
QB50P1 23 Dec 10:04:04 10:08:15 67° 258° (WSW) 10:12:28 145.935-145.965
COMPASS 1 23 Dec 10:05:25 10:08:40 22° 294° (WNW) 10:11:54 437.405
ZACube-1 23 Dec 10:10:00 10:14:35 87° 284° (WNW) 10:19:11 437.345
CUBEBUG 2 23 Dec 10:12:12 10:16:49 63° 286° (WNW) 10:21:31 437.445
SEEDS 23 Dec 10:15:39 10:18:11 16° 297° (WNW) 10:20:42 437.485
DANDE 23 Dec 10:19:48 10:22:54 20° 299° (WNW) 10:26:44 436.750
YUBILEINY 23 Dec 10:20:49 10:29:34 79° 81° (E) 10:38:16 435.215
VELOX 1 23 Dec 10:22:04 10:26:29 65° 102° (ESE) 10:30:53 145.980
BRITE-PL 23 Dec 10:23:32 10:25:51 14° 298° (WNW) 10:28:14 437.365/2234.400
CUTE 1.7 + AOD 2 23 Dec 10:23:56 10:25:27 12° 300° (WNW) 10:26:57 437.475
ANTELSAT 23 Dec 10:33:16 10:36:48 23° 267° (W) 10:40:26 437.575/2403.000
POPSAT HIP 1 23 Dec 10:33:43 10:37:29 32° 263° (W) 10:41:17 437.405
GOMX 1 23 Dec 10:35:01 10:37:34 14° 298° (WNW) 10:40:11 467.674
ESTCUBE 1 23 Dec 10:35:29 10:39:41 37° 98° (E) 10:43:50 437.505/2401.250
FUNcube-1 23 Dec 10:36:00 10:40:22 48° 288° (WNW) 10:44:47 145.935
O/OREOS (USA 219) 23 Dec 10:42:05 10:45:20 20° 259° (W) 10:48:36 437.305
UWE-3 23 Dec 10:44:31 10:48:42 35° 291° (WNW) 10:52:55 435.000/436.395/437.385
BUGSAT 1 23 Dec 10:44:59 10:48:32 28° 264° (W) 10:52:04 437.445
DOVE 4 23 Dec 10:46:41 10:49:16 15° 298° (WNW) 10:51:56 437.250
HUMSAT D 23 Dec 10:48:16 10:52:32 57° 287° (WNW) 10:56:48 437.325/437.525
CINEMA 3 23 Dec 10:49:30 10:52:57 20° 296° (WNW) 10:56:28 145.822/145.860
DX 1 23 Dec 10:51:35 10:54:59 23° 295° (WNW) 10:58:22 434.975-435.025
DUCHIFAT 1 23 Dec 11:01:24 11:04:10 17° 268° (W) 11:06:57 145.980
CUBEBUG 1 23 Dec 11:02:03 11:06:23 68° 102° (ESE) 11:10:42 437.445
RS-15 23 Dec 11:05:11 11:16:01 72° 118° (ESE) 11:26:54 29.354- 29.394
AISAT 23 Dec 11:07:13 11:11:24 42° 290° (WNW) 11:15:35 437.250
TIGRISAT 23 Dec 11:09:52 11:10:50 11° 273° (W) 11:11:49 435.000
Oscar 11 23 Dec 11:10:27 11:12:02 12° 300° (WNW) 11:13:37 145.826/435.025
BEESAT 2 23 Dec 11:12:58 11:15:00 14° 109° (ESE) 11:17:04 435.950
QB50P2 23 Dec 11:18:49 11:20:10 11° 271° (W) 11:21:31 145.880/145.840
UKube-1 23 Dec 11:20:32 11:22:30 13° 300° (WNW) 11:24:28 .
ISS 23 Dec 11:23:53 11:25:58 16° 133° (SE) 11:28:03 145.825
50 SAT 23 Dec 11:38:46 11:41:54 21° 294° (WNW) 11:45:02 437.505
HO-68 23 Dec 11:40:03 11:41:10 10° 316° (NW) 11:42:17 435.675
TISAT 1 23 Dec 11:44:52 11:48:59 49° 100° (E) 11:53:05 437.305
ZACube-1 23 Dec 11:49:06 11:50:14 11° 301° (WNW) 11:51:22 437.345
Oscar 19 23 Dec 11:55:57 12:00:53 49° 70° (ENE) 12:05:53 437.125/150
SPROUT 23 Dec 11:58:01 12:02:18 66° 101° (ESE) 12:06:35 437.525
VELOX 1 23 Dec 12:00:12 12:02:32 14° 299° (WNW) 12:04:53 145.980
PCSat 23 Dec 12:00:53 12:05:23 27° 109° (ESE) 12:09:54 145.827
BEESAT 3 23 Dec 12:05:58 12:09:57 53° 119° (ESE) 12:14:01 437.485
ESTCUBE 1 23 Dec 12:12:48 12:16:21 23° 295° (WNW) 12:19:52 437.505/2401.250
SWISSCUBE 23 Dec 12:18:12 12:21:38 20° 92° (E) 12:25:02 437.505
ITAMSAT 1 23 Dec 12:18:58 12:23:30 32° 66° (ENE) 12:28:03 435.822/435.867
YUBILEINY 23 Dec 12:19:05 12:25:20 23° 281° (W) 12:31:37 435.215
ITUPSAT 1 23 Dec 12:20:02 12:23:21 18° 92° (E) 12:26:38 437.325
AIST 2 23 Dec 12:30:27 12:34:24 40° 117° (ESE) 12:38:26 435.215
Gurwin Techsat 1B 23 Dec 12:32:01 12:36:24 27° 64° (ENE) 12:40:48 435.225
CUBEBUG 1 23 Dec 12:40:11 12:42:13 13° 299° (WNW) 12:44:15 437.445
BEESAT 23 Dec 12:41:59 12:46:12 31° 96° (E) 12:50:24 436.000
BEESAT 2 23 Dec 12:48:37 12:52:43 64° 306° (NW) 12:56:53 435.950
AO-7 23 Dec 12:53:32 12:59:04 20° 47° (NE) 13:04:36 29.400- 29.500
ISS 23 Dec 12:58:53 13:02:11 73° 330° (NNW) 13:05:29 145.825
RS-15 23 Dec 13:19:04 13:29:12 42° 324° (NW) 13:39:33 29.354- 29.394
TISAT 1 23 Dec 13:21:45 13:24:26 17° 297° (WNW) 13:27:07 437.305
HORYU 2 23 Dec 13:28:19 13:32:15 31° 68° (ENE) 13:36:12 437.375
AUBIESAT-1 23 Dec 13:29:39 13:33:04 24° 98° (E) 13:36:15 437.475
SPROUT 23 Dec 13:35:47 13:37:52 13° 299° (WNW) 13:39:57 437.525
Oscar 19 23 Dec 13:36:35 13:40:29 22° 268° (W) 13:44:26 437.125/150
PCSat 23 Dec 13:43:20 13:48:32 47° 307° (NW) 13:53:48 145.827
BEESAT 3 23 Dec 13:45:17 13:48:26 21° 319° (NW) 13:51:36 437.485
SWISSCUBE 23 Dec 13:55:10 13:59:45 48° 289° (WNW) 14:04:17 437.505
ITUPSAT 1 23 Dec 13:56:54 14:01:32 51° 289° (WNW) 14:06:07 437.325
M-CUBED/EXP-1 PRIME 23 Dec 13:57:08 14:01:21 54° 105° (ESE) 14:05:11 437.505
ITAMSAT 1 23 Dec 13:58:14 14:02:55 34° 263° (W) 14:07:38 435.822/435.867
AIST 2 23 Dec 14:09:32 14:13:09 26° 316° (NW) 14:16:49 435.215
Gurwin Techsat 1B 23 Dec 14:11:07 14:16:08 43° 262° (W) 14:21:12 435.225
